Hourly Weather Alice Town

Today, 6 March, Saturday

Time Temperature Precipitation Wind Pressure Humidity
00:00 +23°C° 0 mm 4 mps 761 mmHg 54%
01:00 +23°C° 0 mm 4 mps 760 mmHg 59%
02:00 +23°C° 0 mm 4 mps 760 mmHg 58%
03:00 +24°C° 0 mm 3 mps 760 mmHg 58%
04:00 +24°C° 0 mm 3 mps 760 mmHg 57%
05:00 +24°C° 0 mm 3 mps 760 mmHg 56%
06:00 +24°C° 0 mm 3 mps 760 mmHg 56%
07:00 +24°C° 0 mm 3 mps 761 mmHg 55%
08:00 +24°C° 0 mm 3 mps 761 mmHg 57%
09:00 +23°C° 0 mm 4 mps 761 mmHg 59%
10:00 +23°C° 0 mm 4 mps 761 mmHg 60%
11:00 +23°C° 0 mm 5 mps 761 mmHg 63%
12:00 +25°C° 0 mm 5 mps 760 mmHg 65%
13:00 +24°C° 0 mm 6 mps 760 mmHg 67%
14:00 +25°C° 0.1 mm 5 mps 759 mmHg 68%
15:00 +25°C° 0.1 mm 5 mps 759 mmHg 69%
16:00 +25°C° 0.1 mm 5 mps 759 mmHg 70%
17:00 +25°C° 0.7 mm 5 mps 759 mmHg 72%
18:00 +25°C° 0.7 mm 5 mps 759 mmHg 73%
19:00 +25°C° 0.7 mm 5 mps 759 mmHg 75%
20:00 +25°C° 1.9 mm 5 mps 759 mmHg 77%
21:00 +23°C° 1.9 mm 5 mps 760 mmHg 79%
22:00 +23°C° 1.9 mm 6 mps 760 mmHg 82%
23:00 +23°C° 0.5 mm 6 mps 760 mmHg 83%

Tomorrow, 7 March, Sunday

Time Temperature Precipitation Wind Pressure Humidity
00:00 +22°C° 0.5 mm 7 mps 760 mmHg 84%
01:00 +22°C° 0.5 mm 8 mps 760 mmHg 85%
02:00 +22°C° 0.1 mm 7 mps 760 mmHg 84%
03:00 +22°C° 0.1 mm 6 mps 760 mmHg 82%
04:00 +22°C° 0.1 mm 5 mps 760 mmHg 80%
05:00 +22°C° 0.1 mm 6 mps 760 mmHg 79%
06:00 +22°C° 0.1 mm 6 mps 761 mmHg 77%
07:00 +22°C° 0.1 mm 6 mps 761 mmHg 75%
08:00 +22°C° 0.1 mm 7 mps 762 mmHg 75%
09:00 +22°C° 0.1 mm 8 mps 763 mmHg 75%
10:00 +22°C° 0.1 mm 9 mps 764 mmHg 75%
11:00 +22°C° 0 mm 10 mps 764 mmHg 75%
12:00 +22°C° 0 mm 10 mps 764 mmHg 75%
13:00 +22°C° 0 mm 11 mps 764 mmHg 74%
14:00 +22°C° 0.1 mm 11 mps 764 mmHg 75%
15:00 +22°C° 0.1 mm 12 mps 764 mmHg 75%
16:00 +22°C° 0.1 mm 12 mps 764 mmHg 75%
17:00 +22°C° 0.1 mm 12 mps 764 mmHg 75%
18:00 +22°C° 0.1 mm 12 mps 765 mmHg 74%
19:00 +22°C° 0.1 mm 12 mps 765 mmHg 73%
20:00 +22°C° 0.1 mm 13 mps 766 mmHg 73%
21:00 +22°C° 0.1 mm 13 mps 767 mmHg 73%
22:00 +20°C° 0.1 mm 13 mps 767 mmHg 73%
23:00 +21°C° 0.1 mm 12 mps 767 mmHg 72%

Day after tomorrow, 8 March, Monday

Time Temperature Precipitation Wind Pressure Humidity
00:00 +21°C° 0.1 mm 12 mps 767 mmHg 71%
01:00 +21°C° 0.1 mm 12 mps 767 mmHg 70%
02:00 +19°C° 0 mm 12 mps 767 mmHg 70%
03:00 +19°C° 0 mm 11 mps 767 mmHg 70%
04:00 +18°C° 0 mm 11 mps 767 mmHg 70%
05:00 +18°C° 0 mm 11 mps 768 mmHg 69%
06:00 +18°C° 0 mm 11 mps 769 mmHg 69%
07:00 +19°C° 0 mm 11 mps 769 mmHg 69%
08:00 +19°C° 0 mm 11 mps 770 mmHg 69%
09:00 +19°C° 0 mm 11 mps 770 mmHg 69%
10:00 +19°C° 0 mm 11 mps 771 mmHg 69%
11:00 +19°C° 0 mm 11 mps 771 mmHg 69%
12:00 +19°C° 0 mm 11 mps 771 mmHg 68%
13:00 +19°C° 0 mm 11 mps 770 mmHg 68%
14:00 +21°C° 0 mm 11 mps 770 mmHg 68%
15:00 +21°C° 0 mm 11 mps 770 mmHg 68%
16:00 +21°C° 0 mm 11 mps 770 mmHg 68%
17:00 +21°C° 0.1 mm 11 mps 770 mmHg 68%
18:00 +21°C° 0.1 mm 11 mps 770 mmHg 68%
19:00 +21°C° 0.1 mm 11 mps 770 mmHg 69%
20:00 +21°C° 0 mm 12 mps 771 mmHg 69%
21:00 +19°C° 0 mm 12 mps 771 mmHg 70%
22:00 +19°C° 0 mm 12 mps 771 mmHg 70%
23:00 +19°C° 0.1 mm 11 mps 771 mmHg 71%

9 March, Tuesday

Time Temperature Precipitation Wind Pressure Humidity
00:00 +19°C° 0.1 mm 11 mps 771 mmHg 71%
01:00 +19°C° 0.1 mm 11 mps 770 mmHg 72%
02:00 +19°C° 0.1 mm 11 mps 770 mmHg 72%
03:00 +19°C° 0.1 mm 11 mps 770 mmHg 72%
04:00 +19°C° 0.1 mm 11 mps 770 mmHg 72%
05:00 +19°C° 0.1 mm 11 mps 770 mmHg 71%
06:00 +19°C° 0.1 mm 11 mps 770 mmHg 69%
07:00 +21°C° 0.1 mm 11 mps 771 mmHg 68%
08:00 +21°C° 0.1 mm 11 mps 771 mmHg 69%
09:00 +21°C° 0.1 mm 11 mps 771 mmHg 69%
10:00 +21°C° 0.1 mm 11 mps 772 mmHg 69%
11:00 +21°C° 0.1 mm 10 mps 771 mmHg 69%
12:00 +21°C° 0.1 mm 10 mps 771 mmHg 68%
13:00 +21°C° 0.1 mm 10 mps 770 mmHg 68%
14:00 +21°C° 0 mm 10 mps 770 mmHg 69%
15:00 +21°C° 0 mm 10 mps 769 mmHg 70%
16:00 +21°C° 0 mm 11 mps 769 mmHg 70%
17:00 +22°C° 0.1 mm 10 mps 769 mmHg 69%
18:00 +22°C° 0.1 mm 10 mps 769 mmHg 69%
19:00 +22°C° 0.1 mm 10 mps 769 mmHg 68%
20:00 +22°C° 0.1 mm 10 mps 770 mmHg 68%
21:00 +22°C° 0.1 mm 10 mps 770 mmHg 69%
22:00 +22°C° 0.1 mm 11 mps 770 mmHg 70%
23:00 +22°C° 0.1 mm 10 mps 770 mmHg 70%

10 March, Wednesday

Time Temperature Precipitation Wind Pressure Humidity
00:00 +22°C° 0.1 mm 10 mps 769 mmHg 70%
01:00 +22°C° 0.1 mm 10 mps 769 mmHg 69%
02:00 +22°C° 0 mm 10 mps 769 mmHg 68%
03:00 +22°C° 0 mm 10 mps 768 mmHg 67%
04:00 +22°C° 0 mm 9 mps 768 mmHg 66%
05:00 +22°C° 0.2 mm 10 mps 768 mmHg 67%
06:00 +22°C° 0.2 mm 10 mps 769 mmHg 68%
07:00 +22°C° 0.2 mm 11 mps 769 mmHg 69%
08:00 +22°C° 0.1 mm 11 mps 769 mmHg 70%
09:00 +22°C° 0.1 mm 11 mps 769 mmHg 71%
10:00 +22°C° 0.1 mm 11 mps 769 mmHg 72%
11:00 +22°C° 0.1 mm 10 mps 769 mmHg 70%
12:00 +23°C° 0.1 mm 10 mps 769 mmHg 68%
13:00 +23°C° 0.1 mm 10 mps 768 mmHg 66%
14:00 +23°C° 0 mm 10 mps 768 mmHg 66%
15:00 +23°C° 0 mm 10 mps 767 mmHg 67%
16:00 +23°C° 0 mm 9 mps 767 mmHg 67%
17:00 +23°C° 0.1 mm 10 mps 767 mmHg 68%
18:00 +23°C° 0.1 mm 10 mps 767 mmHg 69%
19:00 +23°C° 0.1 mm 11 mps 767 mmHg 70%
20:00 +23°C° 0.1 mm 11 mps 768 mmHg 70%
21:00 +23°C° 0.1 mm 11 mps 768 mmHg 71%
22:00 +23°C° 0.1 mm 11 mps 768 mmHg 72%
23:00 +23°C° 0.1 mm 11 mps 768 mmHg 72%

11 March, Thursday

Time Temperature Precipitation Wind Pressure Humidity
00:00 +23°C° 0.1 mm 10 mps 768 mmHg 71%
01:00 +23°C° 0.1 mm 10 mps 767 mmHg 71%
02:00 +23°C° 0.1 mm 10 mps 767 mmHg 72%
03:00 +23°C° 0.1 mm 10 mps 767 mmHg 72%
04:00 +23°C° 0.1 mm 10 mps 767 mmHg 73%
05:00 +23°C° 0.1 mm 10 mps 767 mmHg 72%
06:00 +23°C° 0.1 mm 10 mps 767 mmHg 71%
07:00 +24°C° 0.1 mm 10 mps 767 mmHg 70%
08:00 +24°C° 0.1 mm 10 mps 767 mmHg 72%
09:00 +24°C° 0.1 mm 11 mps 768 mmHg 73%
10:00 +24°C° 0.1 mm 11 mps 768 mmHg 75%
11:00 +24°C° 0.2 mm 11 mps 768 mmHg 75%
12:00 +24°C° 0.2 mm 11 mps 767 mmHg 75%
13:00 +24°C° 0.2 mm 11 mps 767 mmHg 75%
14:00 +24°C° 0.1 mm 11 mps 766 mmHg 76%
15:00 +24°C° 0.1 mm 11 mps 766 mmHg 76%
16:00 +24°C° 0.1 mm 11 mps 765 mmHg 76%
17:00 +24°C° 0.4 mm 11 mps 766 mmHg 76%
18:00 +24°C° 0.4 mm 11 mps 766 mmHg 77%
19:00 +24°C° 0.4 mm 11 mps 766 mmHg 77%
20:00 +24°C° 0.4 mm 11 mps 766 mmHg 77%
21:00 +24°C° 0.4 mm 11 mps 767 mmHg 77%
22:00 +24°C° 0.4 mm 12 mps 767 mmHg 77%
23:00 +24°C° 0.1 mm 11 mps 767 mmHg 76%
Show more